CW1490 Weather Reports


Display with metric or nautical units.
time (UTC)temp
F
wind
direction
speed
MPH
gust
MPH
rain 1hr
in
rain 24hr
in
rain mn
in
humidity
%
barometer
mb
20150303202007 28 219 6.0 14.0 0.00 0.00 0.00 43 1022.4
20150303200504 28 203 6.0 10.0 0.00 0.00 0.00 42 1022.8
20150303195003 28 229 7.0 12.0 0.00 0.00 0.00 41 1023.0
20150303193500 28 211 6.0 12.0 0.00 0.00 0.00 42 1023.3
20150303191959 28 205 7.0 10.0 0.00 0.00 0.00 41 1023.4
20150303190656 28 174 4.0 8.0 0.00 0.00 0.00 41 1023.8
20150303184953 28 184 3.0 8.0 0.00 0.00 0.00 40 1024.4
20150303183450 28 201 4.0 10.0 0.00 0.00 0.00 40 1024.7
20150303181946 28 148 4.0 10.0 0.00 0.00 0.00 43 1025.5
20150303180444 27 163 6.0 10.0 0.00 0.00 0.00 41 1026.0
20150303174943 27 213 6.0 12.0 0.00 0.00 0.00 42 1026.6
20150303173443 27 207 3.0 9.0 0.00 0.00 0.00 42 1026.8
20150303171941 27 176 6.0 12.0 0.00 0.00 0.00 41 1027.2
20150303170439 26 199 6.0 10.0 0.00 0.00 0.00 42 1027.4
20150303164936 26 173 3.0 9.0 0.00 0.00 0.00 41 1027.8
20150303163435 26 227 3.0 9.0 0.00 0.00 0.00 42 1027.9
20150303161932 25 225 1.0 7.0 0.00 0.00 0.00 43 1028.2
20150303160430 24 199 0.0 7.0 0.00 0.00 0.00 46 1028.3
20150303154928 24 120 2.0 5.0 0.00 0.00 0.00 45 1028.4
20150303153425 24 155 2.0 7.0 0.00 0.00 0.00 44 1028.5
20150303151923 23 212 3.0 6.0 0.00 0.00 0.00 45 1028.9
20150303150420 23 139 3.0 6.0 0.00 0.00 0.00 48 1028.9
20150303144917 22 66 0.0 5.0 0.00 0.00 0.00 48 1029.0
20150303143415 21 61 0.0 4.0 0.00 0.00 0.00 49 1029.1
20150303141913 20 134 0.0 4.0 0.00 0.00 0.00 55 1029.2
20150303140411 20 184 0.0 1.0 0.00 0.00 0.00 58 1029.4
20150303134909 18 172 0.0 3.0 0.00 0.00 0.00 65 1029.5
20150303133406 16 215 1.0 4.0 0.00 0.00 0.00 69 1029.9
20150303131903 14 196 0.0 4.0 0.00 0.00 0.00 74 1029.9
20150303130359 11 180 2.0 5.0 0.00 0.00 0.00 78 1029.7
20150303124856 10 175 2.0 4.0 0.00 0.00 0.00 81 1029.6
20150303123353 8 182 1.0 5.0 0.00 0.00 0.00 86 1029.5
20150303121849 4 230 0.0 0.0 0.00 0.00 0.00 87 1029.3
20150303120344 4 230 0.0 0.0 0.00 0.00 0.00 86 1029.1
20150303115042 4 230 0.0 1.0 0.00 0.00 0.00 87 1028.9
20150303113340 3 225 0.0 0.0 0.00 0.00 0.00 86 1029.0
20150303111838 4 225 0.0 1.0 0.00 0.00 0.00 86 1028.7
20150303110335 4 180 0.0 0.0 0.00 0.00 0.00 86 1028.5
20150303104834 4 180 0.0 2.0 0.00 0.00 0.00 86 1028.5
20150303103332 5 47 0.0 1.0 0.00 0.00 0.00 86 1028.4
20150303101829 5 47 0.0 0.0 0.00 0.00 0.00 85 1028.2
20150303100326 6 47 0.0 0.0 0.00 0.00 0.00 84 1028.1
20150303094825 7 47 0.0 0.0 0.00 0.00 0.00 84 1027.8
20150303093325 7 47 0.0 0.0 0.00 0.00 0.00 82 1027.9
20150303091824 7 48 0.0 0.0 0.00 0.00 0.00 85 1027.7
20150303090320 7 48 0.0 0.0 0.00 0.00 0.00 82 1027.5
20150303084817 8 48 0.0 2.0 0.00 0.00 0.00 78 1027.2
20150303083314 10 46 0.0 0.0 0.00 0.00 0.00 80 1027.0
20150303081812 10 44 0.0 1.0 0.00 0.00 0.00 80 1026.6
20150303080308 10 43 0.0 3.0 0.00 0.00 0.00 77 1026.6
20150303074807 11 341 0.0 0.0 0.00 0.00 0.00 77 1026.6
20150303073305 12 341 0.0 2.0 0.00 0.00 0.00 75 1026.6
20150303071802 13 341 0.0 4.0 0.00 0.00 0.00 74 1026.4
20150303070259 13 19 0.0 0.0 0.00 0.00 0.00 74 1026.4
20150303064756 15 19 0.0 0.0 0.00 0.00 0.00 73 1026.4
20150303063253 16 19 0.0 0.0 0.00 0.00 0.00 68 1026.3
20150303061748 19 6 1.0 6.0 0.00 0.00 0.00 62 1025.9
20150303060245 19 10 1.0 4.0 0.00 0.00 0.00 61 1025.7
20150303054743 20 20 3.0 8.0 0.00 0.00 0.00 62 1025.6
20150303053241 20 2 2.0 9.0 0.00 0.00 0.00 61 1025.5
20150303051738 21 9 1.0 4.0 0.00 0.00 0.00 61 1025.2
20150303050235 21 37 1.0 7.0 0.00 0.00 0.00 61 1025.3
20150303044733 22 37 3.0 13.0 0.00 0.00 0.00 60 1025.0
20150303043331 22 43 5.0 11.0 0.00 0.00 0.00 58 1024.9
20150303041729 23 27 3.0 6.0 0.00 0.00 0.00 57 1024.6
20150303040233 24 359 9.0 18.0 0.00 0.00 0.00 57 1024.4
20150303034725 24 5 6.0 18.0 0.00 0.00 0.00 57 1024.2
20150303033222 24 14 9.0 17.0 0.00 0.00 0.00 57 1023.9
20150303031925 25 20 12.0 23.0 0.00 0.00 0.00 58 1023.4
20150303030239 25 4 8.0 15.0 0.00 0.00 0.00 59 1023.2
20150303024713 25 3 5.0 10.0 0.00 0.00 0.00 59 1023.0
20150303023211 26 36 6.0 16.0 0.00 0.00 0.00 57 1022.8
20150303021710 26 17 6.0 15.0 0.00 0.00 0.00 55 1022.8
20150303020209 26 39 5.0 17.0 0.00 0.00 0.00 54 1022.7
20150303014914 26 350 9.0 17.0 0.00 0.00 0.00 53 1022.4
20150303013205 26 313 5.0 18.0 0.00 0.00 0.00 51 1022.1
20150303011910 27 340 7.0 17.0 0.00 0.00 0.00 51 1022.0
20150303010202 27 345 5.0 13.0 0.00 0.00 0.00 53 1022.1
20150303004702 26 337 6.0 19.0 0.00 0.00 0.00 57 1022.0
20150303003406 26 310 5.0 10.0 0.00 0.00 0.00 61 1022.0
20150303001658 26 288 3.0 9.0 0.00 0.00 0.00 62 1021.9
20150303000155 26 39 1.0 11.0 0.00 0.01 0.00 60 1021.5
20150302234653 27 336 4.0 13.0 0.00 0.01 0.00 56 1021.2
20150302233151 27 254 4.0 13.0 0.00 0.01 0.00 53 1020.8
20150302231649 27 335 4.0 15.0 0.00 0.01 0.00 53 1020.5
20150302230147 27 248 6.0 17.0 0.00 0.01 0.00 52 1020.2
20150302224645 28 345 7.0 18.0 0.00 0.01 0.00 54 1019.5
20150302223143 28 345 5.0 21.0 0.00 0.01 0.00 57 1019.2
20150302221643 29 7 8.0 18.0 0.00 0.01 0.00 64 1018.8
20150302220142 29 345 0.0 12.0 0.00 0.01 0.00 67 1018.4
20150302214642 29 350 0.0 10.0 0.00 0.01 0.00 70 1018.0
20150302213141 29 314 8.0 14.0 0.00 0.01 0.00 72 1017.8
20150302211741 29 274 5.0 12.0 0.00 0.01 0.00 73 1017.7
20150302210141 30 324 3.0 12.0 0.00 0.01 0.00 69 1017.6
20150302204640 31 287 2.0 14.0 0.00 0.01 0.00 65 1017.3
20150302203139 31 338 1.0 11.0 0.00 0.01 0.00 64 1017.3